Flag for U.S.A. Weather past 2 weeks in Lubbock, Texas, U.S.A.

Now
89 °F

Broken clouds.


Feels Like: 90 °F
Forecast: 70 / 85 °F
Wind: 13 mph from South

Location: Lubbock International Airport

Current Time: Jul 3, 2015 at 5:33:32 PM

Latest Report: Jul 3, 2015 at 4:53 PM


Visibility: 10 mi

Pressure: 29.84 "Hg (26.75 "Hg at 976m altitude)

Humidity: 42%

Dew point: 63 °F

Location of LubbockLocation

Historic Weather in Lubbock — Graph

°F

Lubbock temperature yesterday

Maximum temperature yesterday: 91 °F (at 2:53 PM)
Minimum temperature yesterday: 69 °F (at 6:53 AM)
Average temperature yesterday: 80 °F

Past Weeks' High & Low Weather Summary

 TemperatureHumidityPressure
High94 °F (Jun 18, 4:53 PM)91% (Jun 30, 7:53 AM)30.13 "Hg (Jun 30, 7:53 AM)
Low64 °F (Jun 30, 2:53 AM)28% (Jun 18, 6:04 PM)29.79 "Hg (Jun 20, 6:53 PM)
Average78 °F59%29.94 "Hg
* Reported Jun 18 3:53 PM — Jul 3 3:53 PM, Lubbock, Weather by CustomWeather, © 2015

Note: Actual official high and low records may vary slightly from our data, if they occured in-between our weather recording intervals... More about our weather records

Advertising

Lubbock weather history for previous 24 hours

 ConditionsComfort  
Time TempWeatherWind HumidityBarometerVisibility
3:53 PM
Fri, Jul 3
88 °FBroken clouds.5 mph43%29.84 "Hg10 mi
2:53 PM87 °FBroken clouds.8 mph43%29.87 "Hg10 mi
1:53 PM86 °FBroken clouds.5 mph45%29.89 "Hg10 mi
12:53 PM85 °FPartly sunny.3 mph46%29.91 "Hg10 mi
11:53 AM81 °FPartly sunny.No wind54%29.93 "Hg10 mi
10:53 AM79 °FBroken clouds.3 mph62%29.91 "Hg10 mi
9:53 AM76 °FMostly cloudy.5 mph69%29.93 "Hg10 mi
8:53 AM73 °FMostly cloudy.6 mph74%29.91 "Hg10 mi
7:53 AM71 °FMostly cloudy.6 mph78%29.91 "Hg9 mi
6:53 AM70 °FPassing clouds.6 mph81%29.90 "Hg10 mi
5:53 AM69 °FPartly cloudy.5 mph81%29.88 "Hg10 mi
4:53 AM71 °FPartly cloudy.8 mph76%29.85 "Hg10 mi
3:53 AM73 °FPartly cloudy.9 mph71%29.86 "Hg10 mi
2:53 AM71 °FPassing clouds.3 mph78%29.88 "Hg10 mi
1:53 AM75 °FPassing clouds.9 mph69%29.87 "Hg10 mi
12:53 AM73 °FPartly cloudy.8 mph71%29.87 "Hg10 mi
11:53 PM
Thu, Jul 2
73 °FMostly cloudy.6 mph71%29.87 "Hg10 mi
10:53 PM76 °FMostly cloudy.8 mph62%29.84 "Hg10 mi
9:53 PM77 °FBroken clouds.8 mph60%29.85 "Hg10 mi
8:53 PM82 °FPartly sunny.10 mph49%29.83 "Hg10 mi
7:53 PM84 °FMore clouds than sun.15 mph46%29.81 "Hg10 mi
6:53 PM86 °FCloudy.14 mph43%29.81 "Hg10 mi
5:53 PM88 °FBroken clouds.16 mph40%29.82 "Hg10 mi
Weather by CustomWeather, © 2015

See weather overviewHow to use our weather pages